TimeCST,TemperatureF,Dew PointF,Humidity,Sea Level PressureIn,VisibilityMPH,Wind Direction,Wind SpeedMPH,Gust SpeedMPH,PrecipitationIn,Events,Conditions,WindDirDegrees,DateUTC
12:09 AM,28.4,24.8,86,29.93,4.0,NNW,5.8,-,0.00,Snow,Light Snow,340,2012-12-29 06:09:00
12:38 AM,28.4,24.8,86,29.93,4.0,NNW,8.1,-,0.00,,Overcast,330,2012-12-29 06:38:00
12:53 AM,28.0,25.0,88,29.96,4.0,NNW,6.9,-,0.00,,Overcast,330,2012-12-29 06:53:00
1:24 AM,28.4,24.8,86,29.93,4.0,NNW,8.1,-,N/A,,Overcast,340,2012-12-29 07:24:00
1:53 AM,28.0,24.1,85,29.97,4.0,NNW,6.9,-,0.00,Snow,Light Snow,340,2012-12-29 07:53:00
2:09 AM,28.4,24.8,86,29.95,4.0,NNW,6.9,-,0.00,,Overcast,330,2012-12-29 08:09:00
2:27 AM,28.4,24.8,86,29.96,3.0,NW,5.8,-,0.00,Snow,Light Snow,320,2012-12-29 08:27:00
2:31 AM,28.4,24.8,86,29.96,3.0,NW,6.9,-,0.00,Snow,Light Snow,310,2012-12-29 08:31:00
2:53 AM,28.0,25.0,88,29.99,3.0,NW,8.1,-,0.00,Snow,Light Snow,320,2012-12-29 08:53:00
3:14 AM,26.6,24.8,93,29.97,4.0,NW,9.2,-,0.00,,Overcast,310,2012-12-29 09:14:00
3:27 AM,26.6,23.0,86,29.97,4.0,NW,8.1,17.3,0.00,,Overcast,320,2012-12-29 09:27:00
3:53 AM,26.1,23.0,88,30.00,4.0,NW,8.1,-,0.00,,Overcast,320,2012-12-29 09:53:00
4:01 AM,26.6,23.0,86,29.97,4.0,NW,9.2,-,N/A,,Overcast,310,2012-12-29 10:01:00
4:53 AM,25.0,21.0,85,30.01,5.0,NW,15.0,20.7,N/A,,Overcast,320,2012-12-29 10:53:00
5:14 AM,24.8,19.4,80,30.00,6.0,NW,12.7,-,N/A,,Overcast,320,2012-12-29 11:14:00
5:32 AM,24.8,19.4,80,30.01,6.0,NW,11.5,20.7,N/A,,Overcast,320,2012-12-29 11:32:00
5:53 AM,23.0,19.0,85,30.04,7.0,NW,12.7,-,N/A,,Overcast,320,2012-12-29 11:53:00
6:01 AM,23.0,19.4,86,30.01,7.0,NW,10.4,18.4,N/A,,Overcast,320,2012-12-29 12:01:00
6:21 AM,23.0,19.4,86,30.02,7.0,NW,11.5,-,N/A,,Overcast,320,2012-12-29 12:21:00
6:53 AM,23.0,19.0,85,30.06,6.0,NW,11.5,17.3,N/A,,Overcast,310,2012-12-29 12:53:00
7:15 AM,23.0,19.4,86,30.04,5.0,NW,9.2,-,0.00,,Overcast,320,2012-12-29 13:15:00
7:48 AM,23.0,19.4,86,30.05,2.5,NW,11.5,-,0.00,Snow,Light Snow,320,2012-12-29 13:48:00
7:53 AM,23.0,19.0,85,30.09,2.5,NW,11.5,16.1,0.00,Snow,Light Snow,310,2012-12-29 13:53:00
8:04 AM,21.2,17.6,86,30.06,1.8,NW,12.7,18.4,0.00,Snow,Light Snow,310,2012-12-29 14:04:00
8:16 AM,21.2,17.6,86,30.07,1.8,WNW,15.0,20.7,0.00,Snow,Light Snow,300,2012-12-29 14:16:00
8:23 AM,21.2,17.6,86,30.07,2.0,NW,11.5,20.7,0.00,Snow,Light Snow,310,2012-12-29 14:23:00
8:40 AM,21.2,17.6,86,30.08,4.0,NW,13.8,24.2,0.00,Snow,Light Snow,320,2012-12-29 14:40:00
8:53 AM,21.9,18.0,85,30.12,3.0,NW,9.2,20.7,0.00,,Overcast,310,2012-12-29 14:53:00
9:16 AM,21.2,17.6,86,30.10,2.0,NW,12.7,20.7,0.00,Snow,Light Snow,310,2012-12-29 15:16:00
9:29 AM,21.2,15.8,80,30.10,2.0,NW,16.1,24.2,0.00,Snow,Light Snow,310,2012-12-29 15:29:00
9:53 AM,21.0,16.0,81,30.15,2.0,NW,13.8,24.2,0.00,Snow,Light Snow,320,2012-12-29 15:53:00
10:10 AM,21.2,15.8,80,30.13,3.0,NW,16.1,24.2,0.00,Snow,Light Snow,320,2012-12-29 16:10:00
10:42 AM,21.2,15.8,80,30.14,4.0,WNW,16.1,21.9,0.00,,Haze,300,2012-12-29 16:42:00
10:53 AM,21.0,16.0,81,30.17,5.0,WNW,17.3,25.3,0.00,,Haze,300,2012-12-29 16:53:00
11:53 AM,21.0,15.1,78,30.17,8.0,WNW,9.2,19.6,N/A,,Overcast,300,2012-12-29 17:53:00
12:53 PM,19.9,12.9,74,30.18,9.0,WNW,12.7,21.9,N/A,,Overcast,300,2012-12-29 18:53:00
1:53 PM,19.9,12.9,74,30.18,8.0,WNW,10.4,18.4,N/A,,Mostly Cloudy,290,2012-12-29 19:53:00
2:15 PM,19.4,12.2,74,30.16,8.0,WNW,12.7,18.4,N/A,,Scattered Clouds,290,2012-12-29 20:15:00
2:53 PM,19.9,12.0,71,30.20,7.0,NW,10.4,-,N/A,,Clear,310,2012-12-29 20:53:00
3:53 PM,19.9,10.9,68,30.22,8.0,WNW,10.4,-,N/A,,Clear,300,2012-12-29 21:53:00
4:53 PM,19.4,10.4,68,30.21,6.0,WNW,4.6,-,N/A,,Haze,290,2012-12-29 22:53:00
5:53 PM,17.1,10.9,77,30.25,7.0,Calm,Calm,-,N/A,,Clear,0,2012-12-29 23:53:00
6:53 PM,15.1,10.0,80,30.27,7.0,West,3.5,-,N/A,,Clear,280,2012-12-30 00:53:00
7:53 PM,12.9,9.0,84,30.28,8.0,Calm,Calm,-,N/A,,Clear,0,2012-12-30 01:53:00
8:53 PM,12.9,9.0,84,30.29,6.0,SSW,3.5,-,N/A,,Clear,210,2012-12-30 02:53:00
9:53 PM,14.0,10.9,88,30.29,6.0,SSW,5.8,-,N/A,,Clear,200,2012-12-30 03:53:00
10:53 PM,15.1,12.0,88,30.31,5.0,SW,5.8,-,N/A,,Clear,220,2012-12-30 04:53:00
11:53 PM,12.9,10.0,88,30.29,7.0,SSW,5.8,-,N/A,,Clear,200,2012-12-30 05:53:00